This demonstration page uses our WeatherBlox Daily Observations layout. Learn more.

Left ArrowRight Arrow

41.12389, -100.76542

Hourly Observations for July 6, 2016

Temp ( °F °C ) Dew Point ( °F °C ) Humidity (%) Winds ( mph kmh ) Pressure ( in mb ) Visibility ( mi km ) Precip ( " mm )
12:53 am 00:53 Mostly Clear 72 22.2 59 15 64 64 undefined N/A 29.77 1008 10 16 0.00 0.03
1:53 am 01:53 Clear 69 20.6 59 15 70 70 Calm 29.78 1009 10 16 0.00 0.00
2:53 am 02:53 Clear 67 19.4 60 15.6 79 79 Calm 29.79 1009 10 16 0.00 0.00
3:53 am 03:53 Clear 66 18.9 61 16.1 84 84 WNW 6 9 29.81 1009 10 16 0.00 0.00
4:53 am 04:53 Clear 65 18.3 61 16.1 87 87 ENE 5 7 29.78 1008 10 16 0.00 0.00
5:53 am 05:53 Clear 63 17.2 60 15.6 90 90 SSE 6 9 29.77 1008 10 16 0.00 0.00
6:53 am 06:53 Sunny 62 16.7 60 15.6 93 93 NNE 3 6 29.80 1009 10 16 0.00 0.00
7:53 am 07:53 Sunny 66 18.9 63 17.2 90 90 ESE 3 6 29.78 1009 10 16 0.00 0.00
8:53 am 08:53 Sunny 72 22.2 65 18.3 79 79 E 9 15 29.78 1008 10 16 0.00 0.00
9:53 am 09:53 Sunny 76 24.4 66 18.9 72 72 ESE 8 13 29.80 1009 10 16 0.00 0.00
10:53 am 10:53 Sunny 79 26.1 66 18.9 65 65 ESE 6 9 29.80 1009 10 16 0.00 0.00
11:53 am 11:53 Sunny 82 27.8 69 20.6 65 65 ESE 7 11 29.79 1009 10 16 0.00 0.00
12:53 pm 12:53 Sunny 85 29.4 69 20.6 59 59 SE 7 11 29.76 1008 10 16 0.00 0.00
1:53 pm 13:53 Sunny 87 30.6 65 18.3 48 48 E 12 19 29.75 1008 10 16 0.00 0.00
2:53 pm 14:53 Sunny 88 31.1 66 18.9 48 48 VRB 3 6 29.73 1007 10 16 0.00 0.00
3:53 pm 15:53 Sunny 89 31.7 66 18.9 47 47 SE 9 15 29.71 1006 10 16 0.00 0.00
4:53 pm 16:53 Sunny 85 29.4 67 19.4 55 55 SE 7 11 29.70 1006 10 16 0.00 0.00
5:53 pm 17:53 Sunny 84 28.9 69 20.6 61 61 ESE 9 15 29.69 1005 10 16 0.00 0.00
6:53 pm 18:53 Sunny 87 30.6 71 21.7 59 59 ESE 15 24 29.63 1003 10 16 0.00 0.00
7:53 pm 19:53 Mostly Sunny 82 27.8 67 19.4 60 60 SE 13 20 29.61 1003 10 16 0.00 0.00
8:12 pm 20:12 Sunny with Nearby Thunderstorms 81 27.2 68 20 65 65 ESE 16 26 29.50 999 10 16 0.00 0.00
8:41 pm 20:41 Sunny with Thunderstorms 80 26.7 69 20.6 69 69 ESE 14 22 29.50 999 10 16 0.00 0.00
8:53 pm 20:53 Sunny with Thunderstorms 80 26.7 68 20 67 67 ESE 16 26 29.57 1001 10 16 0.00 0.00
9:53 pm 21:53 Mostly Cloudy with Thunderstorms 71 21.7 62 16.7 73 73 ENE 16 26 29.68 1005 10 16 0.00 0.03
10:19 pm 22:19 Partly Cloudy with Thunderstorms 63 17.2 58 14.4 84 84 NNW 14 22 29.74 1007 10 16 0.00 0.00
10:46 pm 22:46 Mostly Clear 70 21 59 15 69 69 ENE 14 22 29.65 1004 10 16 0.00 0.00
10:53 pm 22:53 Clear 70 21.1 59 15 68 68 E 14 22 29.67 1005 10 16 0.00 0.00
11:53 pm 23:53 Clear 65 18.3 59 15 81 81 SE 6 9 29.67 1005 10 16 0.00 0.00

Powered by AerisWeather